August, Belize

1:59 AM CST on January 16, 2018 (GMT -0600)
August

Weather History for 78583 - October, 2012

Change the Weather History Date:

Monday, October 1, 2012

  Actual Average Record
Temperature  
Mean Temperature 83 °F -  
Max Temperature 91 °F 87 °F - ()
Min Temperature 75 °F 73 °F - ()
Cooling Degree Days 18    
Growing Degree Days 33 (Base 50)    
Moisture  
Dew Point 76 °F    
Average Humidity 73    
Maximum Humidity 100    
Minimum Humidity 52    
Precipitation  
Precipitation 0.00 in 0.33 in - ()
Sea Level Pressure  
Sea Level Pressure 29.78 in    
Wind  
Wind Speed 3 mph ()    
Max Wind Speed 7 mph    
Max Gust Speed -    
Visibility 8.7 miles    
Events      
T = Trace of Precipitation, MM = Missing Value Source: Averaged Metar Reports

Daily Weather History Graph

Daily Weather History Graph

Search for Another Location

Airport or City:

Trip Planner

Search our weather history database for the weather conditions in past years. The results will help you decide how hot, cold, wet, or windy it might be!

Date:

Astronomy

Oct. 01, 2012 Rise Set
Actual Time 5:43 AM CST 5:41 PM CST
Civil Twilight 5:21 AM CST 6:03 PM CST
Nautical Twilight 4:56 AM CST 6:28 PM CST
Astronomical Twilight 4:31 AM CST 6:53 PM CST
Moon 6:41 PM CST (10/1) 6:52 AM CST (10/1)
Length of Visible Light 12h 41m
Length of Day
11h 57m
Full, 97% of the Moon is Illuminated
Oct 1
Full
Oct 8
Last Quarter
Oct 15
New
Oct 21
First Quarter
Oct 29
Full

Hourly Weather History & Observations

Time (CST) Temp. Heat Index Dew Point Humidity Pressure Visibility Wind Dir Wind Speed Gust Speed Precip Events Conditions
12:00 AM 80 °F - 77 °F 89% 29.81 in 12 mi ESE 3.5 mph - -   Scattered Clouds
3:00 AM 78 °F - 76 °F 93% 29.76 in 12 mi Calm Calm - -   Mostly Cloudy
5:00 AM 77.0 °F - 77.0 °F 100% 29.77 in 6.2 mi Calm Calm - N/A   Partly Cloudy
6:00 AM 76 °F - 75 °F 96% 29.79 in 12 mi Calm Calm - -   Scattered Clouds
6:00 AM 77.0 °F - 75.2 °F 94% 29.77 in 6.2 mi Calm Calm - N/A   Scattered Clouds
7:00 AM 80.6 °F 88.1 °F 78.8 °F 94% 29.80 in 6.2 mi Calm Calm - N/A   Partly Cloudy
8:00 AM 86.0 °F 96.9 °F 77.0 °F 74% 29.83 in 6.2 mi SSE 4.6 mph - N/A   Scattered Clouds
9:00 AM 87 °F - 75 °F 61% 29.85 in 15 mi South 4.6 mph - -   Partly Cloudy
9:00 AM 86.0 °F 95.1 °F 75.2 °F 70% 29.84 in 6.2 mi South 4.6 mph - N/A   Scattered Clouds
10:00 AM 89.6 °F 99.8 °F 75.2 °F 62% 29.85 in 6.2 mi ESE 5.8 mph - N/A   Scattered Clouds
11:00 AM 89.6 °F 99.8 °F 75.2 °F 62% 29.83 in 6.2 mi SSE 4.6 mph - N/A   Scattered Clouds
12:00 PM 90 °F - 74 °F 52% 29.80 in 16 mi SE 4.6 mph - -   Scattered Clouds
12:00 PM 89.6 °F 99.8 °F 75.2 °F 62% 29.79 in 6.2 mi SE 4.6 mph - N/A   Partly Cloudy
1:00 PM 91.4 °F 102.5 °F 75.2 °F 59% 29.76 in 6.2 mi East 3.5 mph - N/A   Partly Cloudy
2:00 PM 91.4 °F 102.5 °F 75.2 °F 59% 29.73 in 6.2 mi East 6.9 mph - N/A   Partly Cloudy
3:00 PM 90 °F - 74 °F 52%  in 16 mi East 6.9 mph - -  
3:00 PM 89.6 °F 99.8 °F 75.2 °F 62% 29.72 in 6.2 mi East 6.9 mph - N/A   Partly Cloudy
4:00 PM 89.6 °F 102.2 °F 77.0 °F 66% 29.72 in 6.2 mi East 6.9 mph - N/A   Partly Cloudy
5:00 PM 87.8 °F 99.7 °F 77.0 °F 70% 29.72 in 6.2 mi East 4.6 mph - N/A   Partly Cloudy
6:00 PM 84 °F - 77 °F 75% 29.75 in 12 mi East 5.8 mph - -   Scattered Clouds
6:00 PM 84.2 °F 94.1 °F 77.0 °F 79% 29.74 in 6.2 mi East 5.8 mph - N/A   Partly Cloudy
9:00 PM 82 °F - 77 °F 79% 29.85 in 12 mi Calm Calm - -   Scattered Clouds
9:00 PM - - - N/A% - 6.2 mi East 5.8 mph - N/A   Scattered Clouds